TimeCST,TemperatureF,Dew PointF,Humidity,Sea Level PressureIn,VisibilityMPH,Wind Direction,Wind SpeedMPH,Gust SpeedMPH,PrecipitationIn,Events,Conditions,WindDirDegrees,DateUTC
12:15 AM,43.0,32.0,65,30.05,10.0,NNW,4.6,-,N/A,,Clear,340,2013-02-15 06:15:00
12:35 AM,42.8,32.0,66,30.05,10.0,Calm,Calm,-,N/A,,Clear,0,2013-02-15 06:35:00
12:55 AM,42.1,32.0,67,30.05,10.0,Calm,Calm,-,N/A,,Clear,0,2013-02-15 06:55:00
1:15 AM,41.9,32.0,68,30.05,10.0,Calm,Calm,-,N/A,,Clear,0,2013-02-15 07:15:00
1:35 AM,38.3,32.0,78,30.05,10.0,Calm,Calm,-,N/A,,Clear,0,2013-02-15 07:35:00
1:55 AM,37.2,31.8,81,30.06,10.0,Calm,Calm,-,N/A,,Scattered Clouds,0,2013-02-15 07:55:00
2:15 AM,36.9,32.0,83,30.07,10.0,Calm,Calm,-,N/A,,Mostly Cloudy,0,2013-02-15 08:15:00
2:55 AM,35.6,31.6,85,30.08,10.0,Calm,Calm,-,N/A,,Scattered Clouds,0,2013-02-15 08:55:00
3:15 AM,34.7,31.5,88,30.08,10.0,Calm,Calm,-,N/A,,Scattered Clouds,0,2013-02-15 09:15:00
3:35 AM,35.4,31.6,86,30.08,10.0,NW,3.5,-,N/A,,Mostly Cloudy,320,2013-02-15 09:35:00
3:55 AM,36.5,31.6,83,30.08,10.0,Calm,Calm,-,N/A,,Scattered Clouds,0,2013-02-15 09:55:00
4:15 AM,34.5,31.5,89,30.10,10.0,WNW,3.5,-,N/A,,Clear,300,2013-02-15 10:15:00
4:35 AM,33.8,32.5,95,30.10,10.0,Calm,Calm,-,N/A,,Mostly Cloudy,0,2013-02-15 10:35:00
4:55 AM,33.4,32.0,94,30.11,10.0,WNW,3.5,-,N/A,,Scattered Clouds,290,2013-02-15 10:55:00
5:15 AM,38.5,32.2,78,30.11,10.0,NNW,10.4,-,N/A,,Mostly Cloudy,330,2013-02-15 11:15:00
5:35 AM,40.5,31.6,71,30.12,10.0,NNW,6.9,-,N/A,,Overcast,340,2013-02-15 11:35:00
5:55 AM,40.5,31.3,70,30.13,10.0,NNW,5.8,-,N/A,,Overcast,330,2013-02-15 11:55:00
6:15 AM,40.5,31.5,70,30.14,10.0,Calm,Calm,-,N/A,,Light Drizzle,0,2013-02-15 12:15:00
6:35 AM,40.1,31.8,72,30.14,10.0,Calm,Calm,-,N/A,,Overcast,0,2013-02-15 12:35:00
6:55 AM,40.1,31.3,71,30.14,10.0,Calm,Calm,-,N/A,,Overcast,0,2013-02-15 12:55:00
7:15 AM,40.1,31.1,70,30.14,10.0,Calm,Calm,-,N/A,,Overcast,0,2013-02-15 13:15:00
7:35 AM,39.2,32.0,75,30.14,10.0,Calm,Calm,-,N/A,,Overcast,0,2013-02-15 13:35:00
7:55 AM,39.2,32.2,76,30.16,10.0,WNW,3.5,-,N/A,,Mostly Cloudy,290,2013-02-15 13:55:00
8:15 AM,41.5,32.0,69,30.16,10.0,NW,3.5,-,N/A,,Scattered Clouds,310,2013-02-15 14:15:00
8:35 AM,43.5,32.0,64,30.17,10.0,NNW,5.8,-,N/A,,Clear,330,2013-02-15 14:35:00
8:55 AM,44.4,32.0,62,30.17,10.0,NW,9.2,-,N/A,,Clear,320,2013-02-15 14:55:00
9:15 AM,44.1,31.1,60,30.17,10.0,NW,8.1,-,N/A,,Clear,310,2013-02-15 15:15:00
9:35 AM,44.4,31.3,60,30.18,10.0,NNW,11.5,17.3,N/A,,Clear,340,2013-02-15 15:35:00
9:55 AM,44.4,31.1,60,30.19,10.0,NW,13.8,-,N/A,,Clear,310,2013-02-15 15:55:00
10:15 AM,43.9,29.8,58,30.19,10.0,NNW,15.0,19.6,N/A,,Clear,340,2013-02-15 16:15:00
10:35 AM,44.1,29.8,57,30.19,10.0,NW,10.4,17.3,N/A,,Scattered Clouds,320,2013-02-15 16:35:00
10:55 AM,43.2,29.1,58,30.20,10.0,NNW,11.5,18.4,N/A,,Clear,330,2013-02-15 16:55:00
11:15 AM,43.3,28.8,56,30.20,10.0,NW,9.2,19.6,N/A,,Scattered Clouds,310,2013-02-15 17:15:00
11:35 AM,43.3,28.6,56,30.20,10.0,NNW,12.7,17.3,N/A,,Scattered Clouds,330,2013-02-15 17:35:00
11:55 AM,42.6,27.3,55,30.20,10.0,NW,10.4,16.1,N/A,,Scattered Clouds,310,2013-02-15 17:55:00
12:15 PM,43.3,27.0,52,30.19,10.0,WNW,11.5,-,N/A,,Scattered Clouds,300,2013-02-15 18:15:00
12:35 PM,44.2,26.6,50,30.19,10.0,NW,13.8,18.4,N/A,,Scattered Clouds,320,2013-02-15 18:35:00
12:55 PM,42.4,24.4,49,30.19,10.0,NNW,12.7,16.1,N/A,,Scattered Clouds,340,2013-02-15 18:55:00
1:15 PM,44.2,25.3,47,30.19,10.0,NNW,10.4,19.6,N/A,,Mostly Cloudy,330,2013-02-15 19:15:00
1:35 PM,42.8,23.7,47,30.18,10.0,NW,8.1,19.6,N/A,,Scattered Clouds,310,2013-02-15 19:35:00
1:55 PM,43.7,23.4,45,30.17,10.0,NW,9.2,-,N/A,,Scattered Clouds,320,2013-02-15 19:55:00
2:15 PM,44.2,20.8,39,30.18,10.0,NNW,12.7,18.4,N/A,,Scattered Clouds,330,2013-02-15 20:15:00
2:35 PM,43.9,18.1,36,30.18,10.0,North,12.7,20.7,N/A,,Scattered Clouds,350,2013-02-15 20:35:00
2:55 PM,43.7,17.8,35,30.18,10.0,NW,13.8,18.4,N/A,,Clear,320,2013-02-15 20:55:00
3:15 PM,43.3,17.2,35,30.19,10.0,NNW,12.7,18.4,N/A,,Clear,340,2013-02-15 21:15:00
3:35 PM,42.8,15.6,33,30.19,10.0,NNW,13.8,19.6,N/A,,Clear,330,2013-02-15 21:35:00
3:55 PM,42.8,15.6,33,30.19,10.0,NNW,13.8,17.3,N/A,,Clear,330,2013-02-15 21:55:00
4:15 PM,41.9,16.0,35,30.20,10.0,NNW,12.7,-,N/A,,Clear,330,2013-02-15 22:15:00
4:35 PM,40.5,13.5,33,30.20,10.0,NNW,11.5,-,N/A,,Clear,330,2013-02-15 22:35:00
4:55 PM,40.3,14.9,36,30.20,10.0,NNW,9.2,-,N/A,,Clear,340,2013-02-15 22:55:00
5:15 PM,39.2,15.8,39,30.20,10.0,North,8.1,-,N/A,,Clear,350,2013-02-15 23:15:00
5:35 PM,37.4,13.5,38,30.21,10.0,North,8.1,-,N/A,,Clear,360,2013-02-15 23:35:00
5:55 PM,36.5,13.6,39,30.21,10.0,North,5.8,-,N/A,,Clear,360,2013-02-15 23:55:00
6:15 PM,35.6,14.7,42,30.22,10.0,North,4.6,-,N/A,,Clear,350,2013-02-16 00:15:00
6:35 PM,34.9,15.4,45,30.22,10.0,North,4.6,-,N/A,,Clear,10,2013-02-16 00:35:00
6:55 PM,34.3,15.6,46,30.23,10.0,North,4.6,-,N/A,,Clear,350,2013-02-16 00:55:00
7:15 PM,33.8,15.6,47,30.23,10.0,North,4.6,-,N/A,,Clear,350,2013-02-16 01:15:00
7:35 PM,33.6,15.3,47,30.23,10.0,NNW,4.6,-,N/A,,Clear,340,2013-02-16 01:35:00
7:55 PM,33.1,15.8,49,30.23,10.0,North,3.5,-,N/A,,Clear,360,2013-02-16 01:55:00
8:15 PM,32.4,16.7,53,30.23,10.0,NNE,3.5,-,N/A,,Clear,20,2013-02-16 02:15:00
8:35 PM,32.0,17.4,55,30.23,10.0,Calm,Calm,-,N/A,,Clear,0,2013-02-16 02:35:00
8:55 PM,31.6,16.9,54,30.23,10.0,Calm,Calm,-,N/A,,Clear,0,2013-02-16 02:55:00
9:15 PM,29.3,18.0,63,30.23,10.0,Calm,Calm,-,N/A,,Clear,0,2013-02-16 03:15:00
9:35 PM,29.1,18.1,64,30.23,10.0,Calm,Calm,-,N/A,,Clear,0,2013-02-16 03:35:00
9:55 PM,29.3,17.8,62,30.23,10.0,Calm,Calm,-,N/A,,Clear,0,2013-02-16 03:55:00
10:15 PM,29.5,18.1,63,30.22,10.0,Calm,Calm,-,N/A,,Clear,0,2013-02-16 04:15:00
10:35 PM,29.1,17.6,62,30.22,10.0,Calm,Calm,-,N/A,,Clear,0,2013-02-16 04:35:00
10:55 PM,28.2,18.0,65,30.21,10.0,Calm,Calm,-,N/A,,Clear,0,2013-02-16 04:55:00
11:15 PM,28.9,16.7,60,30.21,10.0,Calm,Calm,-,N/A,,Clear,0,2013-02-16 05:15:00
11:35 PM,29.1,18.5,65,30.20,10.0,North,3.5,-,N/A,,Clear,10,2013-02-16 05:35:00
11:55 PM,28.4,18.9,67,30.20,10.0,Calm,Calm,-,N/A,,Clear,0,2013-02-16 05:55:00